Location: Isola Pescaroli
(45.0500°N, 10.1667°E)
Time: 16:49:50
(UTC+00:00)

Cosmos 2360 Rocket - Pass Details

Date: 03 March 2021
Orbit: 832 x 846 km, 71.0° (Epoch: 10 April)

Event Time Altitude Azimuth Distance (km) Brightness Sun altitude
Rises 18:36:16 0° 204° (SSW) 3,374 5.6 -16.1°
Reaches altitude 10° 18:38:41 10° 205° (SSW) 2,446 4.8 -16.5°
Maximum altitude 18:44:19 88° 294° (WNW) 848 2.2 -17.5°
Drops below altitude 10° 18:50:01 10° 25° (NNE) 2,472 4.5 -18.5°
Sets 18:52:28 0° 26° (NNE) 3,412 5.2 -18.9°
